User: anonymous   Login
Location: Unspecified
(0.0000°N, 0.0000°E)
Time: 03:48:31
(UTC+00:00)
Language:

NOAA 6 - Orbit

View from above orbital plane
View from above orbital plane
View from above satellite
View from above satellite

Ground track
Ground track

The orbit data is extracted from the following two-line orbital elements,

1 11416U 79057A   17268.56109714 +.00000058 +00000-0 +37035-4 0  9993
2 11416 098.5878 255.6229 0009576 317.2063 042.8375 14.33437244994242
Epoch (UTC): 25 September 2017 13:27:58
Eccentricity: 0.0009576
inclination: 98.5878°
perigee height: 773 km
apogee height: 787 km
right ascension of ascending node: 255.6229°
argument of perigee: 317.2063°
revolutions per day: 14.33437244
mean anomaly at epoch: 42.8375°
orbit number at epoch: 99424

The dashed part of the orbit path shows where the satellite is in the earth's shadow,  

DLR